Weather History for KMGG - April, 2013

Change the Weather History Date:

Sunday, April 14, 2013

  Actual Average (KSTC) Record (KSTC)
Temperature  
Mean Temperature 28 °F 44 °F  
Max Temperature 34 °F 56 °F 89 °F (2003)
Min Temperature 23 °F 32 °F 15 °F (2008)
Degree Days  
Heating Degree Days 37 21  
Month to date heating degree days 343  
Since 1 July heating degree days 7893  
Cooling Degree Days 0 0  
Month to date cooling degree days 0  
Year to date cooling degree days 0  
Moisture  
Dew Point 28 °F    
Average Humidity 89    
Maximum Humidity 99    
Minimum Humidity 74    
Precipitation  
Precipitation 0.21 in 0.09 in 1.50 in (1986)
Month to date precipitation 1.06  
Year to date precipitation 3.85  
Snow  
Snow 0.00 in 0.20 in 4.70 in (1993)
Month to date snowfall 1.9  
Since 1 July snowfall 44.6  
Snow Depth -    
Sea Level Pressure  
Sea Level Pressure 29.69 in    
Wind  
Wind Speed 9 mph (East)    
Max Wind Speed 25 mph    
Max Gust Speed 34 mph    
Visibility 6 miles    
Events Snow    
T = Trace of Precipitation, MM = Missing Value Source: NWS Daily Summary

Daily Weather History Graph

Daily Weather History Graph

Search for Another Location

Airport or City:

Trip Planner

Search our weather history database for the weather conditions in past years. The results will help you decide how hot, cold, wet, or windy it might be!

Date:

Astronomy

Apr. 14, 2013 Rise Set
Actual Time 6:32 AM CDT 8:00 PM CDT
Civil Twilight 6:01 AM CDT 8:31 PM CDT
Nautical Twilight 5:24 AM CDT 9:09 PM CDT
Astronomical Twilight 4:44 AM CDT 9:49 PM CDT
Moon 9:01 AM CDT (4/14) No Moon Set
Length of Visible Light 14h 30m
Length of Day
13h 28m
Waxing Crescent, 17% of the Moon is Illuminated
Apr 14
Waxing Crescent
Apr 18
First Quarter
Apr 25
Full
May 2
Last Quarter
May 9
New

Hourly Weather History & Observations

Time (CDT) Temp. Windchill Dew Point Humidity Pressure Visibility Wind Dir Wind Speed Gust Speed Precip Events Conditions
12:16 AM 23.0 °F 18.4 °F 21.0 °F 92% 29.93 in 10.0 mi East 3.5 mph - N/A   Mostly Cloudy
12:36 AM 23.9 °F 19.5 °F 21.9 °F 92% 29.93 in 10.0 mi East 3.5 mph - N/A   Overcast
12:56 AM 27.1 °F 20.7 °F 23.9 °F 88% 29.93 in 10.0 mi East 5.8 mph - N/A   Overcast
1:16 AM 28.8 °F 21.7 °F 23.9 °F 82% 29.93 in 10.0 mi East 6.9 mph - N/A   Overcast
1:36 AM 28.8 °F 21.7 °F 23.7 °F 81% 29.92 in 10.0 mi East 6.9 mph - N/A   Overcast
1:56 AM 28.9 °F 22.8 °F 23.7 °F 81% 29.92 in 10.0 mi East 5.8 mph - N/A   Overcast
2:16 AM 28.9 °F 21.1 °F 23.7 °F 81% 29.90 in 10.0 mi East 8.1 mph - N/A   Overcast
2:36 AM 29.1 °F 21.3 °F 23.9 °F 81% 29.88 in 10.0 mi East 8.1 mph - N/A   Overcast
2:56 AM 29.3 °F 21.5 °F 23.7 °F 80% 29.88 in 10.0 mi East 8.1 mph - N/A   Overcast
3:16 AM 29.3 °F 20.8 °F 23.9 °F 80% 29.88 in 10.0 mi East 9.2 mph - N/A   Overcast
3:36 AM 29.3 °F 21.5 °F 23.7 °F 80% 29.88 in 10.0 mi East 8.1 mph - N/A   Overcast
3:56 AM 29.3 °F 20.8 °F 23.5 °F 79% 29.88 in 10.0 mi East 9.2 mph - N/A   Overcast
4:16 AM 29.3 °F 21.5 °F 23.4 °F 78% 29.88 in 10.0 mi East 8.1 mph - N/A   Overcast
4:35 AM 29.7 °F 21.3 °F 23.5 °F 78% 29.88 in 10.0 mi East 9.2 mph - N/A Snow Light Snow
4:56 AM 29.7 °F 20.7 °F 23.2 °F 77% 29.87 in 10.0 mi East 10.4 mph - N/A Snow Light Snow
5:16 AM 29.3 °F 20.2 °F 23.2 °F 78% 29.88 in 7.0 mi East 10.4 mph - N/A Snow Light Snow
5:36 AM 29.3 °F 19.1 °F 23.4 °F 78% 29.87 in 5.0 mi East 12.7 mph - N/A Snow Light Snow
5:56 AM 29.1 °F 18.4 °F 23.5 °F 80% 29.86 in 7.0 mi East 13.8 mph - N/A Snow Light Snow
6:16 AM 28.9 °F 18.6 °F 23.9 °F 81% 29.85 in 4.0 mi East 12.7 mph 18.4 mph N/A Snow Light Snow
6:36 AM 28.8 °F 17.0 °F 24.3 °F 83% 29.85 in 7.0 mi East 16.1 mph 20.7 mph N/A Snow Light Snow
6:56 AM 28.2 °F 17.7 °F 25.2 °F 88% 29.86 in 4.0 mi East 12.7 mph 17.3 mph N/A Snow Light Snow
7:16 AM 28.4 °F 17.5 °F 25.0 °F 87% 29.85 in 7.0 mi East 13.8 mph - N/A Snow Light Snow
7:36 AM 28.4 °F 18.0 °F 24.6 °F 86% 29.84 in 10.0 mi East 12.7 mph 19.6 mph N/A   Overcast
7:56 AM 28.9 °F 17.7 °F 24.8 °F 84% 29.82 in 10.0 mi East 15.0 mph 19.6 mph N/A   Overcast
8:16 AM 29.3 °F 18.2 °F 25.2 °F 85% 29.80 in 10.0 mi East 15.0 mph 24.2 mph N/A   Overcast
8:36 AM 29.3 °F 17.7 °F 25.3 °F 85% 29.80 in 10.0 mi East 16.1 mph 23.0 mph N/A   Overcast
8:56 AM 29.5 °F 18.4 °F 25.5 °F 85% 29.78 in 10.0 mi East 15.0 mph - N/A   Overcast
9:16 AM 30.0 °F 18.7 °F 25.5 °F 83% 29.77 in 10.0 mi East 16.1 mph 24.2 mph N/A   Overcast
9:36 AM 30.6 °F 17.6 °F 25.2 °F 80% 29.76 in 10.0 mi East 21.9 mph - N/A   Overcast
9:56 AM 31.3 °F 19.2 °F 24.6 °F 76% 29.74 in 10.0 mi East 19.6 mph 26.5 mph N/A   Overcast
10:16 AM 31.8 °F 20.2 °F 24.4 °F 74% 29.73 in 10.0 mi East 18.4 mph 26.5 mph N/A   Overcast
10:36 AM 32.0 °F 20.1 °F 24.6 °F 74% 29.71 in 7.0 mi East 19.6 mph 29.9 mph N/A   Overcast
10:56 AM 32.0 °F 19.5 °F 25.3 °F 76% 29.71 in 5.0 mi East 21.9 mph 28.8 mph N/A Snow Light Snow
11:16 AM 32.0 °F 20.1 °F 26.2 °F 79% 29.71 in 5.0 mi East 19.6 mph 24.2 mph N/A   Haze
11:36 AM 31.5 °F 20.1 °F 26.6 °F 82% 29.71 in 10.0 mi East 17.3 mph 23.0 mph N/A   Overcast
11:56 AM 32.0 °F 20.1 °F 27.3 °F 83% 29.71 in 10.0 mi East 19.6 mph 26.5 mph N/A   Overcast
12:16 PM 31.6 °F 20.0 °F 28.4 °F 88% 29.71 in 0.8 mi East 18.4 mph 26.5 mph N/A Snow Light Snow
12:36 PM 31.1 °F 18.9 °F 28.9 °F 92% 29.70 in 0.8 mi East 19.6 mph 24.2 mph 0.01 in Snow Light Snow
12:56 PM 31.5 °F 19.1 °F 29.3 °F 92% 29.67 in 1.0 mi ENE 20.7 mph 27.6 mph 0.02 in Snow Light Snow
1:16 PM 31.8 °F 18.4 °F 29.7 °F 92% 29.64 in 2.5 mi East 25.3 mph 32.2 mph 0.01 in Snow Light Snow
1:36 PM 32.0 °F 20.5 °F 29.8 °F 92% 29.65 in 5.0 mi East 18.4 mph 34.5 mph 0.01 in   Overcast
1:56 PM 32.0 °F 19.5 °F 30.2 °F 93% 29.63 in 3.0 mi East 21.9 mph 26.5 mph 0.01 in   Overcast
2:16 PM 32.0 °F 22.1 °F 30.2 °F 93% 29.63 in 4.0 mi East 13.8 mph - N/A   Overcast
2:36 PM 32.0 °F 22.1 °F 30.4 °F 94% 29.61 in 3.0 mi East 13.8 mph - 0.01 in Snow Light Snow
2:56 PM 32.0 °F 22.1 °F 30.2 °F 93% 29.60 in 5.0 mi East 13.8 mph - 0.01 in   Overcast
3:16 PM 32.0 °F 23.0 °F 30.7 °F 95% 29.58 in 2.0 mi East 11.5 mph 17.3 mph 0.01 in Snow Light Snow
3:36 PM 32.0 °F 23.6 °F 30.7 °F 95% 29.58 in 2.5 mi East 10.4 mph 16.1 mph 0.02 in Snow Light Snow
3:56 PM 32.0 °F 24.2 °F 30.9 °F 96% 29.56 in 3.0 mi East 9.2 mph - 0.02 in   Overcast
4:15 PM 32.0 °F 24.8 °F 30.9 °F 96% 29.55 in 2.5 mi East 8.1 mph - N/A   Overcast
4:36 PM 32.0 °F 25.6 °F 31.1 °F 96% 29.53 in 1.8 mi East 6.9 mph - N/A   Overcast
4:56 PM 32.0 °F 24.8 °F 31.1 °F 96% 29.52 in 1.5 mi East 8.1 mph - 0.02 in Snow Light Snow
5:16 PM 32.0 °F 26.4 °F 31.1 °F 96% 29.53 in 2.0 mi East 5.8 mph - 0.02 in   Overcast
5:36 PM 32.0 °F 27.5 °F 31.3 °F 97% 29.52 in 2.5 mi East 4.6 mph - 0.03 in   Overcast
5:56 PM 32.2 °F 26.7 °F 31.5 °F 97% 29.51 in 2.0 mi East 5.8 mph - 0.06 in Snow Light Snow
6:16 PM 32.2 °F 26.7 °F 31.3 °F 96% 29.50 in 2.5 mi East 5.8 mph - 0.02 in Snow Light Snow
6:36 PM 32.0 °F 27.5 °F 31.6 °F 99% 29.51 in 3.0 mi East 4.6 mph - 0.07 in Snow Light Snow
6:56 PM 32.2 °F 27.7 °F 31.5 °F 97% 29.50 in 7.0 mi East 4.6 mph - 0.07 in   Overcast
7:16 PM 32.2 °F 27.7 °F 31.5 °F 97% 29.50 in 10.0 mi East 4.6 mph - N/A   Overcast
7:36 PM 32.4 °F 29.1 °F 31.6 °F 97% 29.49 in 10.0 mi East 3.5 mph - N/A   Overcast
7:56 PM 32.4 °F 29.1 °F 31.6 °F 97% 29.50 in 7.0 mi East 3.5 mph - N/A   Overcast
8:16 PM 32.4 °F 29.1 °F 31.8 °F 98% 29.49 in 10.0 mi East 3.5 mph - N/A   Overcast
8:36 PM 32.4 °F 29.1 °F 31.8 °F 98% 29.48 in 10.0 mi East 3.5 mph - N/A   Overcast
8:55 PM 32.4 °F 29.1 °F 32.0 °F 99% 29.48 in 10.0 mi East 3.5 mph - N/A   Overcast
9:16 PM 32.4 °F 29.1 °F 32.0 °F 99% 29.50 in 2.5 mi East 3.5 mph - N/A   Overcast
9:36 PM 32.4 °F - 32.0 °F 99% 29.50 in 3.0 mi Calm Calm - N/A   Overcast
9:56 PM 32.4 °F - 32.0 °F 99% 29.50 in 3.0 mi Calm Calm - N/A   Overcast
10:16 PM 32.5 °F - 32.2 °F 99% 29.50 in 3.0 mi Calm Calm - N/A   Overcast
10:36 PM 32.4 °F - 32.0 °F 99% 29.49 in 2.5 mi Calm Calm - N/A   Overcast
10:56 PM 32.5 °F - 32.4 °F 99% 29.49 in 3.0 mi Calm Calm - N/A   Overcast
11:16 PM 32.9 °F - 32.7 °F 99% 29.48 in 2.0 mi Calm Calm - N/A   Overcast
11:36 PM 33.3 °F - 33.1 °F 99% 29.48 in 3.0 mi Calm Calm - N/A   Overcast
11:56 PM 33.4 °F - 33.3 °F 99% 29.48 in 5.0 mi Calm Calm - N/A   Overcast